sat.trackr.live / text

‹ back to catalog

STARLINK-33730

NORAD 63439 · 2025-069G

PAYLOAD ACTIVE UNKNOWN

§ Identity

Operator
Country
US
Launch date
2025-04-04
Launch site
AFWTR
Launch vehicle
Mass (kg)
RCS (m²)

Purposes: comms

External: N2YO · Heavens-Above · Gunter

§ Orbital elements

Epoch: 2026-05-24T17:03:41.705568Z

Period
93.37 min
Inclination
53.1590°
Eccentricity
0.0001246
Mean motion
15.42176181 rev/d
Perigee alt
438.8 km
Apogee alt
440.5 km
Semi-major
6,817.8 km
B*
5.5476e-4
RAAN
146.5434°
Arg perigee
84.7479°
Mean anomaly
275.3669°
Rev number
6,508

§ Raw data

STARLINK-337301 63439U 25069G   26144.71089937  .00023817  00000+0  55476-3 0  99982 63439  53.1590 146.5434 0001246  84.7479 275.3669 15.42176181 65082

JSON: /api/v1/satellites/63439 · /tle

For live sub-satellite position, see the globe view (requires WebGL).

§ Visibility from observer

Set your observer location to see the next 7 days of passes ≥ 10°. The values pass through the URL so the page stays shareable.

No JS? Fill the form by hand. The geolocation button needs JavaScript.